Location: Penton Mewsey
(51.2167°N, 1.5167°W)
Time: 11:03:54
(UTC+00:00)

CARTOSAT-1 - Pass Details

Date: 30 March 2020
Orbit: 616 x 619 km, 97.8° (Epoch: 25 May)

Event Time Altitude Azimuth Distance (km) Brightness Sun altitude
Exits shadow 21:07:27 47° 63° (ENE) 829 4.0 -22.3°
Drops below altitude 10° 21:11:29 10° 356° (N) 1,998 6.7 -22.8°
Sets 21:13:44 0° 351° (N) 2,909 7.8 -23.0°
